Location: Bannatyne
(13.0833°N, 59.5333°W)
Time: 17:09:15
(UTC+00:00)

Vanguard 3 - Pass Details

Date: 01 February 2020
Orbit: 508 x 3263 km, 33.3° (Epoch: 22 February)

Event Time Altitude Azimuth Distance (km) Brightness Sun altitude
Rises 23:37:39 0° 300° (WNW) 7,197 12.7 -24.1°
Reaches altitude 10° 23:43:06 10° 306° (NW) 6,198 12.1 -25.4°
Maximum altitude 00:01:18 44° 14° (NNE) 3,518 10.0 -29.7°
Enters shadow 00:05:22 39° 44° (NE) 3,465 9.8 -30.7°
Drops below altitude 10° 00:14:07 10° 82° (E) 4,496 - -32.8°
Sets 00:17:18 0° 89° (E) 5,155 - -33.5°
